FW5772 Weather Reports


Display with metric or nautical units.
time (UTC)temp
F
wind
direction
speed
MPH
gust
MPH
rain 1hr
in
rain 24hr
in
rain mn
in
humidity
%
barometer
mb
20260505021505 62 284 13.0 18.0 0.00 0.00 0.00 47 1001.0
20260505020005 63 298 10.0 21.0 0.00 0.00 0.00 46 1000.9
20260505014504 64 273 13.0 19.0 0.00 0.00 0.00 43 1000.7
20260505013005 68 296 14.0 24.0 0.00 0.00 0.00 32 1000.2
20260505011504 69 269 6.0 14.0 0.00 0.00 0.00 32 999.9
20260505010003 68 221 8.0 15.0 0.00 0.00 0.00 33 999.9
20260505004502 69 207 9.0 17.0 0.00 0.00 0.00 33 999.9
20260505003002 69 360 10.0 18.0 0.00 0.00 0.00 32 1000.0
20260505001502 70 211 12.0 18.0 0.00 0.00 0.00 31 999.9
20260505000116 70 190 7.0 12.0 0.00 0.00 0.00 33 1000.1
20260504234600 70 175 6.0 14.0 0.00 0.00 0.00 35 1000.1
20260504233111 69 163 6.0 13.0 0.00 0.00 0.00 36 1000.4
20260504231601 71 126 3.0 8.0 0.00 0.00 0.00 34 1000.4
20260504230058 70 183 1.0 3.0 0.00 0.00 0.00 35 1000.6
20260504224607 69 156 0.0 5.0 0.00 0.00 0.00 38 1000.5
20260504223129 68 122 3.0 7.0 0.00 0.00 0.00 39 1000.3
20260504221556 68 140 2.0 7.0 0.00 0.00 0.00 39 1000.6
20260504220056 67 197 2.0 9.0 0.00 0.00 0.00 45 1000.7
20260504214554 68 207 2.0 8.0 0.00 0.00 0.00 44 1000.8
20260504213101 69 319 3.0 9.0 0.00 0.00 0.00 35 1000.9
20260504211550 70 281 6.0 12.0 0.00 0.00 0.00 34 1001.3
20260504210056 71 205 4.0 7.0 0.00 0.00 0.00 33 1001.2
20260504204550 72 97 6.0 11.0 0.00 0.00 0.00 33 1001.5
20260504203104 71 306 6.0 11.0 0.00 0.00 0.00 35 1001.5
20260504201549 71 29 4.0 9.0 0.00 0.00 0.00 35 1001.7
20260504200045 70 38 9.0 12.0 0.00 0.00 0.00 36 1001.9
20260504194542 70 334 2.0 8.0 0.00 0.00 0.00 38 1002.3
20260504193039 70 47 2.0 6.0 0.00 0.00 0.00 39 1002.5
20260504191537 67 340 2.0 4.0 0.00 0.00 0.00 42 1002.6
20260504190037 66 23 1.0 7.0 0.00 0.00 0.00 41 1002.7
20260504184533 66 30 0.0 5.0 0.00 0.00 0.00 43 1003.0
20260504183032 66 20 4.0 9.0 0.00 0.00 0.00 45 1003.2
20260504181538 64 5 6.0 9.0 0.00 0.00 0.00 46 1003.5
20260504180028 64 349 3.0 6.0 0.00 0.00 0.00 46 1003.8
20260504174528 63 9 3.0 8.0 0.00 0.00 0.00 53 1003.9
20260504173028 63 348 7.0 11.0 0.00 0.00 0.00 50 1003.9
20260504171528 65 12 7.0 11.0 0.00 0.00 0.00 45 1004.0
20260504081541 64 116 4.0 9.0 0.00 0.00 0.00 34 1004.9
20260504050025 63 130 2.0 4.0 0.00 0.00 0.00 24 1004.6
20260504044534 64 113 2.0 5.0 0.00 0.00 0.00 24 1004.7
20260504043025 65 104 3.0 7.0 0.00 0.00 0.00 23 1004.7
20260504041523 66 104 5.0 9.0 0.00 0.00 0.00 22 1004.8
20260504040023 67 65 1.0 4.0 0.00 0.00 0.00 21 1004.7
20260504034523 67 22 0.0 4.0 0.00 0.00 0.00 20 1004.7
20260504033022 69 214 1.0 8.0 0.00 0.00 0.00 20 1004.7
20260504031525 69 192 1.0 8.0 0.00 0.00 0.00 19 1004.7
20260504030023 70 244 6.0 10.0 0.00 0.00 0.00 19 1004.5
20260504024521 71 227 2.0 5.0 0.00 0.00 0.00 19 1004.5
20260504023022 71 183 3.0 6.0 0.00 0.00 0.00 18 1004.4